DW1886 Weather Reports


time (UTC)temp
C
wind
direction
speed
KPH
gust
KPH
rain 1hr
cm
rain 24hr
cm
rain mn
cm
humidity
%
barometer
mb
20260902231353 33 293 1.6 4.8 0.00 0.00 0.00 61 1017.0
20260902230853 33 0 3.2 6.4 0.00 0.00 0.00 59 1017.0
20260902230353 33 256 3.2 6.4 0.00 0.00 0.00 60 1017.0
20260902225852 33 273 3.2 8.0 0.00 0.00 0.00 58 1017.0
20260902225840 34 303 3.2 8.0 0.00 0.00 0.00 58 1017.0
20260902225112 34 292 3.2 8.0 0.00 0.00 0.00 56 1017.2
20260902224613 34 283 3.2 8.0 0.00 0.00 0.00 57 1017.2
20260902223853 34 289 3.2 8.0 0.00 0.00 0.00 57 1017.3
20260902223355 34 279 3.2 11.3 0.00 0.00 0.00 56 1017.3
20260902222853 34 275 4.8 11.3 0.00 0.00 0.00 56 1017.3
20260902222354 34 266 3.2 9.7 0.00 0.00 0.00 55 1017.2
20260902221853 34 275 4.8 9.7 0.00 0.00 0.00 56 1017.2
20260902221349 34 314 4.8 9.7 0.00 0.00 0.00 58 1017.2
20260902220850 34 267 4.8 11.3 0.00 0.00 0.00 57 1017.3
20260902220348 34 286 6.4 12.9 0.00 0.00 0.00 56 1017.3
20260902215848 34 266 4.8 12.9 0.00 0.00 0.00 58 1017.2
20260902215349 34 267 4.8 9.7 0.00 0.00 0.00 57 1017.4
20260902215118 35 149 4.8 9.7 0.00 0.00 0.00 56 1017.4
20260902214349 35 285 3.2 9.7 0.00 0.00 0.00 55 1017.5
20260902213849 35 213 3.2 8.0 0.00 0.00 0.00 56 1017.4
20260902213349 35 257 3.2 9.7 0.00 0.00 0.00 57 1017.3
20260902212850 34 314 4.8 9.7 0.00 0.00 0.00 56 1017.3
20260902212350 34 279 6.4 12.9 0.00 0.00 0.00 55 1017.4
20260902211850 34 286 6.4 12.9 0.00 0.00 0.00 56 1017.4
20260902211614 34 297 4.8 9.7 0.00 0.00 0.00 56 1017.4
20260902211114 34 268 4.8 9.7 0.00 0.00 0.00 57 1017.4
20260902210344 34 270 6.4 14.5 0.00 0.00 0.00 57 1017.6
20260902205843 33 277 8.0 14.5 0.00 0.00 0.00 57 1017.5
20260902205344 34 283 6.4 11.3 0.00 0.00 0.00 56 1017.5
20260902205110 34 277 6.4 14.5 0.00 0.00 0.00 57 1017.7
20260902204344 35 205 6.4 14.5 0.00 0.00 0.00 55 1017.7
20260902203844 35 278 4.8 11.3 0.00 0.00 0.00 57 1017.7
20260902203613 35 273 4.8 11.3 0.00 0.00 0.00 55 1017.7
20260902202844 35 271 4.8 11.3 0.00 0.00 0.00 55 1017.8
20260902202345 34 262 6.4 12.9 0.00 0.00 0.00 56 1017.7
20260902202329 34 285 6.4 12.9 0.00 0.00 0.00 56 1017.8
20260902201343 34 296 6.4 12.9 0.00 0.00 0.00 55 1017.8
20260902201101 34 192 4.8 11.3 0.00 0.00 0.00 54 1017.8
20260902200341 35 275 6.4 12.9 0.00 0.00 0.00 55 1017.8
20260902195840 35 265 6.4 12.9 0.00 0.00 0.00 55 1018.0
20260902195339 35 308 4.8 9.7 0.00 0.00 0.00 53 1018.0
20260902194839 34 283 6.4 9.7 0.00 0.00 0.00 55 1017.7
20260902194339 35 271 4.8 9.7 0.00 0.00 0.00 55 1018.0
20260902194058 35 278 4.8 9.7 0.00 0.00 0.00 54 1018.2
20260902193339 34 274 4.8 9.7 0.00 0.00 0.00 55 1018.0
20260902192839 35 231 4.8 9.7 0.00 0.00 0.00 55 1018.1
20260902192338 35 156 3.2 9.7 0.00 0.00 0.00 53 1018.2
20260902191840 34 252 3.2 8.0 0.00 0.00 0.00 56 1018.3
20260902191340 34 273 4.8 9.7 0.00 0.00 0.00 54 1018.2
20260902190839 34 269 6.4 11.3 0.00 0.00 0.00 56 1018.4
20260902190339 33 281 6.4 11.3 0.00 0.00 0.00 58 1018.1
20260902185838 34 255 6.4 14.5 0.00 0.00 0.00 54 1018.5
20260902185337 34 267 6.4 14.5 0.00 0.00 0.00 55 1018.2
20260902184839 35 302 6.4 12.9 0.00 0.00 0.00 53 1018.6
20260902184337 35 272 4.8 12.9 0.00 0.00 0.00 53 1018.7
20260902184328 34 123 4.8 12.9 0.00 0.00 0.00 57 1018.5
20260902183606 34 302 4.8 12.9 0.00 0.00 0.00 57 1018.4
20260902182839 34 223 4.8 14.5 0.00 0.00 0.00 57 1018.6
20260902182340 34 241 6.4 14.5 0.00 0.00 0.00 56 1018.6
20260902181838 34 282 6.4 14.5 0.00 0.00 0.00 55 1018.6
20260902181557 34 295 4.8 11.3 0.00 0.00 0.00 60 1018.6
20260902180838 34 331 3.2 9.7 0.00 0.00 0.00 58 1018.5
20260902180338 33 255 4.8 11.3 0.00 0.00 0.00 60 1018.5
20260902175837 33 282 6.4 12.9 0.00 0.00 0.00 59 1018.6
20260902175338 34 275 4.8 12.9 0.00 0.00 0.00 59 1018.7
20260902174838 34 308 4.8 9.7 0.00 0.00 0.00 60 1018.8
20260902174338 33 300 3.2 9.7 0.00 0.00 0.00 59 1018.6
20260902174106 33 283 3.2 8.0 0.00 0.00 0.00 63 1018.7
20260902173559 33 42 4.8 8.0 0.00 0.00 0.00 60 1018.9
20260902172838 33 260 4.8 9.7 0.00 0.00 0.00 61 1018.9
20260902172338 32 300 6.4 14.5 0.00 0.00 0.00 61 1018.9
20260902171838 32 277 6.4 14.5 0.00 0.00 0.00 62 1018.8
20260902171338 33 294 6.4 14.5 0.00 0.00 0.00 61 1019.0
20260902171317 33 283 6.4 12.9 0.00 0.00 0.00 61 1018.9
20260902170335 33 301 6.4 12.9 0.00 0.00 0.00 60 1019.0
20260902165835 33 273 4.8 11.3 0.00 0.00 0.00 62 1019.0
20260902165335 32 299 6.4 11.3 0.00 0.00 0.00 63 1018.9
20260902164834 32 260 6.4 11.3 0.00 0.00 0.00 64 1019.0
20260902164334 32 173 4.8 11.3 0.00 0.00 0.00 62 1018.9
20260902163834 32 229 6.4 11.3 0.00 0.00 0.00 63 1019.0
20260902163334 32 281 6.4 11.3 0.00 0.00 0.00 62 1019.0
20260902162834 32 295 6.4 9.7 0.00 0.00 0.00 61 1019.1
20260902162334 32 317 4.8 9.7 0.00 0.00 0.00 64 1019.1
20260902161835 32 269 4.8 12.9 0.00 0.00 0.00 64 1019.1
20260902161555 32 196 4.8 12.9 0.00 0.00 0.00 69 1018.9
20260902161058 32 285 4.8 8.0 0.00 0.00 0.00 63 1019.0
20260902160328 32 283 3.2 8.0 0.00 0.00 0.00 63 1019.2
20260902155827 32 272 3.2 8.0 0.00 0.00 0.00 64 1019.1
20260902155329 32 300 3.2 8.0 0.00 0.00 0.00 65 1019.2
20260902154829 32 234 4.8 6.4 0.00 0.00 0.00 68 1019.1
20260902154543 32 300 4.8 8.0 0.00 0.00 0.00 67 1019.2
20260902153825 32 294 3.2 8.0 0.00 0.00 0.00 69 1019.1
20260902153548 32 295 3.2 4.8 0.00 0.00 0.00 65 1019.2
20260902153057 32 313 3.2 8.0 0.00 0.00 0.00 67 1019.2
20260902152326 31 284 3.2 8.0 0.00 0.00 0.00 68 1019.2
20260902152042 31 0 3.2 9.7 0.00 0.00 0.00 67 1019.2
20260902151326 31 251 3.2 9.7 0.00 0.00 0.00 70 1019.2
20260902150827 31 283 3.2 9.7 0.00 0.00 0.00 69 1019.2
20260902150325 30 269 3.2 9.7 0.00 0.00 0.00 68 1019.2
20260902145824 30 303 3.2 8.0 0.00 0.00 0.00 68 1019.2
20260902145324 30 189 4.8 9.7 0.00 0.00 0.00 71 1019.2
20260902145310 30 271 4.8 9.7 0.00 0.00 0.00 70 1019.2
20260902144926 30 291 4.8 9.7 0.00 0.00 0.00 70 1019.3
20260902143826 30 261 3.2 9.7 0.00 0.00 0.00 68 1019.2
20260902143325 30 0 3.2 8.0 0.00 0.00 0.00 70 1019.1
20260902142825 30 279 3.2 8.0 0.00 0.00 0.00 70 1019.1
20260902142326 30 218 3.2 8.0 0.00 0.00 0.00 72 1019.1
20260902141825 29 278 3.2 8.0 0.00 0.00 0.00 73 1019.2
20260902141325 29 279 3.2 11.3 0.00 0.00 0.00 72 1019.2
20260902140824 29 269 3.2 11.3 0.00 0.00 0.00 72 1019.1
20260902140325 29 0 4.8 9.7 0.00 0.00 0.00 73 1019.0
20260902135821 29 267 3.2 8.0 0.00 0.00 0.00 73 1019.1
20260902135322 29 281 3.2 6.4 0.00 0.00 0.00 74 1019.1
20260902134821 29 254 3.2 6.4 0.00 0.00 0.00 73 1019.1
20260902134321 29 282 3.2 6.4 0.00 0.00 0.00 72 1019.1
20260902134046 29 282 3.2 9.7 0.00 0.00 0.00 74 1019.1
20260902133321 29 288 3.2 9.7 0.00 0.00 0.00 72 1019.1
20260902132821 30 240 1.6 4.8 0.00 0.00 0.00 71 1019.1
20260902132321 29 0 1.6 4.8 0.00 0.00 0.00 73 1019.0
20260902132044 29 251 1.6 4.8 0.00 0.00 0.00 72 1019.0
20260902131546 29 269 1.6 4.8 0.00 0.00 0.00 72 1019.1
20260902130822 29 295 1.6 3.2 0.00 0.00 0.00 72 1019.1
20260902130320 29 161 0.0 3.2 0.00 0.00 0.00 71 1019.1
20260902125820 29 184 0.0 4.8 0.00 0.00 0.00 72 1019.2
20260902125546 28 289 0.0 4.8 0.00 0.00 0.00 74 1019.1
20260902125047 28 214 0.0 1.6 0.00 0.00 0.00 73 1019.1
20260902124538 28 0 0.0 1.6 0.00 0.00 0.00 77 1018.9
20260902123818 27 0 0.0 1.6 0.00 0.00 0.00 79 1018.8
20260902123317 26 0 0.0 1.6 0.00 0.00 0.00 78 1018.8
20260902123038 25 245 0.0 1.6 0.00 0.00 0.00 81 1018.4
20260902122316 25 0 0.0 0.0 0.00 0.00 0.00 82 1018.3
20260902121816 24 0 0.0 0.0 0.00 0.00 0.00 85 1017.6
20260902121541 23 0 0.0 0.0 0.00 0.00 0.00 85 1017.1
20260902120815 23 0 0.0 0.0 0.00 0.00 0.00 87 1016.4
20260902120316 22 0 0.0 0.0 0.00 0.00 0.00 87 1016.4
20260902115813 22 0 0.0 0.0 0.00 0.00 0.00 87 1016.2
20260902115539 22 0 0.0 1.6 0.00 0.00 0.00 87 1016.1
20260902114805 22 0 0.0 1.6 0.00 0.00 0.00 87 1016.1
20260902114303 22 70 0.0 1.6 0.00 0.00 0.00 87 1016.0
20260902113803 22 82 0.0 3.2 0.00 0.00 0.00 87 1015.8
20260902113526 22 0 0.0 3.2 0.00 0.00 0.00 87 1015.8
20260902113037 22 66 0.0 1.6 0.00 0.00 0.00 87 1015.8
20260902112305 22 0 0.0 3.2 0.00 0.00 0.00 87 1015.7
20260902111752 22 0 1.6 3.2 0.00 0.00 0.00 87 1015.7
20260902111249 22 83 0.0 3.2 0.00 0.00 0.00 88 1015.6
20260902111008 22 0 0.0 3.2 0.00 0.00 0.00 88 1015.6
20260902110249 22 0 0.0 1.6 0.00 0.00 0.00 88 1015.6
20260902105749 22 0 0.0 1.6 0.00 0.00 0.00 88 1015.6
20260902105248 22 0 0.0 1.6 0.00 0.00 0.00 88 1015.6
20260902104959 22 0 0.0 1.6 0.00 0.00 0.00 88 1015.7
20260902104234 22 72 0.0 3.2 0.00 0.00 0.00 88 1015.7
20260902103734 22 0 0.0 3.2 0.00 0.00 0.00 88 1015.7
20260902103234 22 0 0.0 0.0 0.00 0.00 0.00 88 1015.7
20260902102735 22 0 0.0 1.6 0.00 0.00 0.00 88 1015.7
20260902102453 22 0 0.0 1.6 0.00 0.00 0.00 88 1015.6
20260902101732 22 0 0.0 1.6 0.00 0.00 0.00 88 1015.6
20260902101226 22 0 0.0 1.6 0.00 0.00 0.00 88 1015.6
20260902100726 22 0 0.0 3.2 0.00 0.00 0.00 88 1015.7
20260902100221 22 0 0.0 3.2 0.00 0.00 0.00 88 1015.6
20260902095940 22 74 0.0 3.2 0.00 0.00 0.00 88 1015.5
20260902095219 21 74 0.0 1.6 0.00 0.00 0.00 88 1015.5
20260902094720 21 0 0.0 3.2 0.00 0.00 0.00 88 1015.6
20260902094438 21 73 0.0 3.2 0.00 0.00 0.00 88 1015.5
20260902093941 21 0 0.0 3.2 0.00 0.00 0.00 88 1015.5
20260902093428 22 0 0.0 1.6 0.00 0.00 0.00 88 1015.5
20260902093315 22 0 0.0 1.6 0.00 0.00 0.00 88 1015.5
20260902092218 22 0 0.0 0.0 0.00 0.00 0.00 87 1015.5
20260902091719 22 0 0.0 1.6 0.00 0.00 0.00 87 1015.5
20260902091220 22 0 0.0 1.6 0.00 0.00 0.00 87 1015.5
20260902090715 22 0 0.0 1.6 0.00 0.00 0.00 87 1015.5
20260902090652 22 0 0.0 3.2 0.00 0.00 0.00 87 1015.4
20260902085930 22 0 1.6 3.2 0.00 0.00 0.00 87 1015.4
20260902085206 22 75 1.6 3.2 0.00 0.00 0.00 87 1015.4
20260902084707 22 76 1.6 3.2 0.00 0.00 0.00 87 1015.4
20260902084205 22 68 1.6 3.2 0.00 0.00 0.00 87 1015.3
20260902083709 22 172 1.6 3.2 0.00 0.00 0.00 87 1015.2
20260902083154 22 65 1.6 3.2 0.00 0.00 0.00 87 1015.2
20260902082652 22 74 1.6 3.2 0.00 0.00 0.00 87 1015.2
20260902082402 22 0 1.6 3.2 0.00 0.00 0.00 87 1015.3
20260902081637 22 47 1.6 3.2 0.00 0.00 0.00 87 1015.3
20260902081134 22 72 1.6 3.2 0.00 0.00 0.00 86 1015.3
20260902080636 22 55 3.2 3.2 0.00 0.00 0.00 86 1015.2
20260902080134 22 84 3.2 3.2 0.00 0.00 0.00 86 1015.3
20260902075625 22 79 1.6 3.2 0.00 0.00 0.00 86 1015.3
20260902075344 22 0 1.6 3.2 0.00 0.00 0.00 86 1015.3
20260902074625 22 77 1.6 3.2 0.00 0.00 0.00 86 1015.3
20260902074124 22 83 1.6 4.8 0.00 0.00 0.00 86 1015.3
20260902073623 22 78 1.6 4.8 0.00 0.00 0.00 86 1015.3
20260902073123 22 91 1.6 3.2 0.00 0.00 0.00 86 1015.3
20260902072623 22 89 1.6 3.2 0.00 0.00 0.00 86 1015.3
20260902072123 22 72 1.6 3.2 0.00 0.00 0.00 86 1015.3
20260902071621 22 59 1.6 3.2 0.00 0.00 0.00 86 1015.3
20260902071122 22 82 1.6 3.2 0.00 0.00 0.00 86 1015.3
20260902070621 22 71 1.6 3.2 0.00 0.00 0.00 86 1015.2
20260902070120 22 69 0.0 3.2 0.00 0.00 0.00 86 1015.2
20260902065841 22 0 1.6 3.2 0.00 0.00 0.00 86 1015.3
20260902065121 22 77 1.6 3.2 0.00 0.00 0.00 86 1015.3
20260902065057 22 78 1.6 3.2 0.00 0.00 0.00 86 1015.3
20260902064121 22 0 1.6 3.2 0.00 0.00 0.00 86 1015.3
20260902063615 22 88 1.6 3.2 0.00 0.00 0.00 86 1015.3
20260902063114 22 83 1.6 3.2 0.00 0.00 0.00 86 1015.4
20260902062613 22 82 1.6 3.2 0.00 0.00 0.00 86 1015.4
20260902062112 23 79 1.6 3.2 0.00 0.00 0.00 85 1015.6
20260902061606 23 73 1.6 3.2 0.00 0.00 0.00 85 1015.5
20260902061320 23 81 1.6 3.2 0.00 0.00 0.00 85 1015.6
20260902060553 23 61 1.6 3.2 0.00 0.00 0.00 85 1015.6
20260902060054 23 66 1.6 3.2 0.00 0.00 0.00 85 1015.6
20260902055554 23 68 1.6 3.2 0.00 0.00 0.00 85 1015.6
20260902055055 23 76 1.6 3.2 0.00 0.00 0.00 85 1015.7
20260902054817 23 69 1.6 3.2 0.00 0.00 0.00 85 1015.8
20260902054054 23 70 1.6 3.2 0.00 0.00 0.00 85 1015.8
20260902053554 23 67 1.6 3.2 0.00 0.00 0.00 85 1016.0
20260902053055 23 0 1.6 3.2 0.00 0.00 0.00 85 1016.0
20260902052540 23 68 1.6 3.2 0.00 0.00 0.00 84 1016.0
20260902052041 23 0 0.0 3.2 0.00 0.00 0.00 84 1016.1
20260902051753 23 76 0.0 3.2 0.00 0.00 0.00 84 1016.2
20260902051258 23 0 0.0 3.2 0.00 0.00 0.00 84 1016.2
20260902050529 23 75 1.6 3.2 0.00 0.00 0.00 84 1016.2
20260902050028 23 79 0.0 3.2 0.00 0.00 0.00 84 1016.2
20260902045526 23 0 1.6 4.8 0.00 0.00 0.00 84 1016.4
20260902045028 23 70 1.6 4.8 0.00 0.00 0.00 84 1016.4
20260902044750 23 70 0.0 3.2 0.00 0.00 0.00 84 1016.4
20260902044026 23 0 0.0 3.2 0.00 0.00 0.00 83 1016.5
20260902043750 23 0 1.6 3.2 0.00 0.00 0.00 83 1016.6
20260902043020 23 74 1.6 3.2 0.00 0.00 0.00 83 1016.6
20260902042512 23 63 1.6 3.2 0.00 0.00 0.00 83 1016.7
20260902042010 23 0 1.6 3.2 0.00 0.00 0.00 83 1016.7
20260902041512 24 0 1.6 3.2 0.00 0.00 0.00 83 1016.8
20260902040957 24 61 1.6 3.2 0.00 0.00 0.00 83 1016.9
20260902040457 24 82 1.6 3.2 0.00 0.00 0.00 83 1016.9
20260902040212 24 78 1.6 3.2 0.00 0.00 0.00 83 1017.0
20260902035457 24 72 1.6 3.2 0.00 0.00 0.00 82 1017.0
20260902034955 24 74 1.6 3.2 0.00 0.00 0.00 82 1017.1
20260902034719 24 67 1.6 3.2 0.00 0.00 0.00 82 1017.1
20260902033956 24 0 0.0 3.2 0.00 0.00 0.00 82 1017.2
20260902033456 24 73 0.0 1.6 0.00 0.00 0.00 82 1017.3
20260902032955 25 0 0.0 3.2 0.00 0.00 0.00 81 1017.3
20260902032724 25 0 1.6 3.2 0.00 0.00 0.00 81 1017.3
20260902031948 25 59 0.0 3.2 0.00 0.00 0.00 81 1017.3
20260902031659 25 54 0.0 3.2 0.00 0.00 0.00 81 1017.2
20260902030942 25 0 0.0 3.2 0.00 0.00 0.00 81 1017.3
20260902030442 25 0 1.6 3.2 0.00 0.00 0.00 81 1017.3
20260902025941 25 59 0.0 3.2 0.00 0.00 0.00 81 1017.3
20260902025443 25 0 0.0 1.6 0.00 0.00 0.00 81 1017.2
20260902024942 25 0 0.0 1.6 0.00 0.00 0.00 81 1017.2
20260902024442 25 0 0.0 3.2 0.00 0.00 0.00 81 1017.2
20260902023941 25 0 0.0 3.2 0.00 0.00 0.00 81 1017.2
20260902023442 25 68 0.0 3.2 0.00 0.00 0.00 81 1017.3
20260902022936 25 0 0.0 3.2 0.00 0.00 0.00 81 1017.3
20260902022437 25 0 0.0 3.2 0.00 0.00 0.00 81 1017.4
20260902021937 25 52 0.0 3.2 0.00 0.00 0.00 81 1017.4
20260902021437 25 0 0.0 3.2 0.00 0.00 0.00 81 1017.4
20260902020937 25 81 0.0 3.2 0.00 0.00 0.00 81 1017.4
20260902020437 25 0 0.0 3.2 0.00 0.00 0.00 80 1017.4
20260902015939 25 0 0.0 3.2 0.00 0.00 0.00 81 1017.4
20260902015438 25 0 0.0 3.2 0.00 0.00 0.00 80 1017.4
20260902014938 25 0 0.0 3.2 0.00 0.00 0.00 80 1017.4
20260902014653 25 91 0.0 3.2 0.00 0.00 0.00 79 1017.4
20260902013933 25 0 0.0 3.2 0.00 0.00 0.00 79 1017.5
20260902013434 26 58 0.0 3.2 0.00 0.00 0.00 79 1017.5
20260902013153 26 14 0.0 3.2 0.00 0.00 0.00 80 1017.4
20260902012433 26 356 0.0 3.2 0.00 0.00 0.00 79 1017.3
20260902011933 26 0 0.0 3.2 0.00 0.00 0.00 78 1017.3
20260902011433 26 0 0.0 3.2 0.00 0.00 0.00 77 1017.3
20260902010932 26 341 0.0 3.2 0.00 0.00 0.00 77 1017.4
20260902010433 27 0 0.0 3.2 0.00 0.00 0.00 76 1017.4
20260902005932 27 0 0.0 3.2 0.00 0.00 0.00 76 1017.3
20260902005432 27 0 0.0 1.6 0.00 0.00 0.00 76 1017.3
20260902004933 27 0 0.0 1.6 0.00 0.00 0.00 75 1017.3
20260902004433 27 0 0.0 0.0 0.00 0.00 0.00 74 1017.3
20260902003928 27 0 0.0 0.0 0.00 0.00 0.00 74 1017.3
20260902003918 27 0 0.0 1.6 0.00 0.00 0.00 74 1017.3
20260902002929 27 0 0.0 1.6 0.00 0.00 0.00 73 1017.4
20260902002429 27 0 0.0 1.6 0.00 0.00 0.00 73 1017.4
20260902001929 27 0 0.0 1.6 0.00 0.00 0.00 73 1017.4
20260902001429 28 318 0.0 1.6 0.00 0.00 0.00 74 1017.4
20260902000929 28 322 0.0 1.6 0.00 0.00 0.00 73 1017.4
20260902000429 28 0 0.0 1.6 0.00 0.00 0.00 73 1017.5
20260901235928 29 306 0.0 3.2 0.00 0.00 0.00 72 1017.5
20260901235433 29 332 0.0 3.2 0.00 0.00 0.00 72 1017.5
20260901234930 30 0 0.0 3.2 0.00 0.00 0.00 70 1017.5
20260901234431 30 0 1.6 3.2 0.00 0.00 0.00 69 1017.6
20260901233930 30 345 1.6 3.2 0.00 0.00 0.00 68 1017.6
20260901233429 30 308 1.6 3.2 0.00 0.00 0.00 65 1017.7
20260901232929 31 304 1.6 3.2 0.00 0.00 0.00 64 1017.7
20260901232431 31 292 1.6 3.2 0.00 0.00 0.00 64 1017.7
20260901231929 31 324 1.6 3.2 0.00 0.00 0.00 65 1017.6